[[{"header":{"parameterUnit":"m.s-1","parameterCategory":1,"la1":30.2991,"la2":30.254,"lo1":-89.0895,"lo2":-89.0444,"dy":0.0017,"dx":0.0017,"nx":28,"ny":28,"refTime":"2025-07-14T03:00:00:Z","depth":0,"parameterNumber":2,"parameterNumberName":"U-component_of_WINDS"},"data":[0,0,0,0,0,0,0,0,0,0,0,0,0,0,0,0,0,0,0,0,0,0,0,0,0,0,0,0,0,0,0,0,0,0,0,0,0,0,0,0,0,0,0,0,0,0,0,0,0,0,0,0,0,0,0,0,0,0,2.9358,2.936,0,2.9552,2.9554,2.9556,2.9612,2.9611,2.961,2.9609,2.9808,2.9814,2.982,0,0,0,0,0,0,0,0,0,0,0,0,0,2.904,2.9046,2.9358,2.9361,2.9363,2.9551,2.9554,2.9557,2.9612,2.9611,2.961,2.9609,2.9806,2.9813,2.9821,0,0,0,0,0,0,0,0,0,0,0,0,0,2.92,2.9048,2.9358,2.9414,2.9421,2.9551,2.9554,2.9557,2.9613,2.9611,2.961,2.9608,2.9803,2.9812,2.9822,2.991,0,0,2.985,2.9854,0,0,0,0,0,0,0,0,2.9191,2.9212,2.9403,2.941,2.9418,2.9556,2.9515,2.9676,2.9613,2.954,2.9609,2.9607,2.9725,2.9741,2.9781,2.992,2.9928,2.9851,2.9857,2.9861,2.9864,0,0,0,0,0,0,0,2.918,2.9204,2.9435,2.9406,2.9415,2.943,2.9451,2.9545,2.9639,2.9546,2.9551,2.9573,2.9729,2.9772,2.9786,2.9931,2.9851,2.9859,2.9865,2.9869,3.0155,3.0157,0,0,0,0,0,0,2.9159,2.9194,2.9429,2.9441,2.9298,2.9437,2.946,2.9513,2.9638,2.9656,2.9574,2.9575,2.9756,2.9775,2.9793,2.9906,2.9861,2.987,2.9875,3.0153,3.0155,3.0157,0,0,0,0,0,0,2.9152,2.918,2.9421,2.9319,2.9351,2.9444,2.9503,2.9518,2.956,2.9659,2.9676,2.96,2.9756,2.978,2.9881,2.9913,2.9874,2.9882,3.0151,3.0154,3.0156,3.013,0,0,0,0,0,0,2.9143,2.9177,2.921,2.9319,2.9356,2.9505,2.9505,2.9523,2.9576,2.9579,2.9688,2.9704,2.9756,2.9867,2.989,2.9925,2.989,3.0148,3.0152,3.0155,3.0129,3.0132,3.0135,0,0,0,0,0,2.9131,2.9195,2.9212,2.924,2.94,2.9506,2.9527,2.9586,2.9579,2.9614,2.9678,2.9701,2.9906,2.9877,2.9904,2.9942,3.0146,3.0151,3.0155,3.0127,3.0131,3.0135,0,0,0,0,0,0,2.9087,2.921,2.923,2.9331,2.9408,2.9515,2.9561,2.9588,2.9668,2.9668,2.9738,2.9762,2.9858,2.9911,2.9876,3.0036,3.0027,3.0037,2.9997,3.0002,3.0005,2.9989,2.9897,0,0,0,0,0,2.9089,2.9165,2.9269,2.9348,2.9386,2.9467,2.9515,2.9554,2.9637,2.9669,2.974,2.982,2.9903,2.9956,3.0037,3.0138,3.0163,3.0178,3.0181,3.0183,3.019,3.0248,3.0256,3.0172,3.0172,3.0172,0,0,2.9094,2.9171,2.9214,2.9341,2.9405,2.9482,2.9494,2.9575,2.9633,2.9682,2.9781,2.9837,2.9931,3.0032,3.008,3.0079,3.022,3.0189,3.0189,3.0196,3.0254,3.0262,3.0269,3.0175,3.0175,3.0174,0,0,2.9142,2.9208,2.9281,2.9346,2.9443,2.9497,2.9515,2.962,2.9658,2.976,2.9798,2.987,3.001,3.0076,3.0127,3.0204,3.0228,3.0229,3.0244,3.03,3.0307,3.0313,3.034,3.0348,3.0236,3.0236,3.0236,0,2.9135,2.9252,2.9315,2.9395,2.945,2.9499,2.9575,2.9634,2.9753,2.9791,2.9788,2.9967,3.0033,3.0151,3.017,3.021,3.0233,3.0215,3.03,3.0307,3.0314,3.034,3.035,3.0236,3.0236,3.0236,3.0236,0,2.924,2.9321,2.9369,2.9482,2.9544,2.9621,2.9696,2.9751,2.9785,2.984,2.9944,3.0026,3.0126,3.0157,3.0192,3.0281,3.0277,3.0287,3.0279,3.032,3.0346,3.0357,3.0235,3.0235,3.0235,3.0235,0,0,2.9261,2.9411,2.9427,2.948,2.9593,2.9657,2.9738,2.9836,2.9881,2.9963,3.0032,3.0152,3.0162,3.022,3.0263,3.0313,3.0368,3.0317,3.032,3.0322,3.0472,3.0462,3.0473,3.0386,3.0389,3.039,3.0464,0,2.9322,2.9467,2.9527,2.9644,2.972,2.977,2.9841,2.9918,2.9972,3.0046,3.0107,3.019,3.0197,3.0233,3.0285,3.035,3.0399,3.0346,3.0451,3.0454,3.0424,3.0487,3.0477,3.0542,3.0474,3.0476,3.0477,0,2.9411,2.9494,2.9618,2.9723,2.9758,2.982,2.9915,2.9985,3.0074,3.0111,3.0178,3.0219,3.0306,3.0296,3.0418,3.038,3.0428,3.0467,3.0471,3.0481,3.0466,3.0497,3.0564,3.0573,3.0494,3.0493,3.0492,0,2.9413,2.9556,2.9649,2.9693,2.9818,2.9861,2.9915,3.0004,3.0059,3.0143,3.018,3.0273,3.0324,3.0396,3.0461,3.0447,3.0578,3.0572,3.061,3.0609,3.0633,3.063,3.0706,3.0667,3.0666,3.0666,3.0666,0,2.9474,2.9548,2.9652,2.9709,2.9794,2.9864,2.9947,3.0005,3.0084,3.0154,3.0203,3.0268,3.0352,3.0428,3.048,3.0573,3.0596,3.0628,3.0641,3.0623,3.0618,3.0653,3.0649,3.0669,3.0668,3.0668,3.0667,0,2.9489,2.9562,2.9667,2.9778,2.9807,2.9865,2.9961,3.0019,3.0077,3.0165,3.019,3.0281,3.0373,3.0447,3.0567,3.0603,3.07,3.0715,3.0669,3.0676,3.071,3.0705,3.0809,3.0826,3.0776,3.0776,3.0776,0,2.9521,2.958,2.9698,2.9748,2.9802,2.9883,2.994,3.0013,3.0071,3.0179,3.0224,3.032,3.04,3.0545,3.0623,3.0716,3.0733,3.0763,3.0747,3.0727,3.0732,3.0727,3.0733,3.0764,3.0764,3.0764,3.0764,0,2.9571,2.9605,2.9686,2.978,2.9847,2.9925,3.0003,3.0042,3.013,3.0192,3.0287,3.035,3.0474,3.0568,3.067,3.0727,3.076,3.077,3.0783,3.0764,3.0734,3.075,3.0673,3.0766,3.0766,3.0766,3.0766,3.0765,2.9596,2.965,2.9742,2.9831,2.9898,2.9971,3.0031,3.0098,3.0178,3.0284,3.0323,3.0421,3.0512,3.0652,3.071,3.0788,3.0791,3.081,3.0815,3.0819,3.0816,3.0724,3.0807,3.0807,3.0807,3.0808,3.0808,0,2.9647,2.971,2.9791,2.99,2.997,2.9997,3.0086,3.0143,3.0228,3.031,3.0389,3.0499,3.0592,3.0678,3.0776,3.0822,3.084,3.0845,3.0841,3.0854,3.0809,3.0786,3.0829,3.0829,3.0829,3.0829,3.0829,3.0829,2.9682,2.9776,2.9821,2.995,3.0012,3.0108,3.0157,3.0225,3.0291,3.0411,3.0489,3.0545,3.0629,3.0734,3.0821,3.0844,3.0877,3.0878,3.0904,3.086,3.0857,3.0854,3.0833,3.0885,3.0885,3.0943,3.0944,3.0944]},{"header":{"parameterUnit":"m.s-1","parameterCategory":1,"la1":30.2991,"la2":30.254,"lo1":-89.0895,"lo2":-89.0444,"dy":0.0017,"dx":0.0017,"nx":28,"ny":28,"refTime":"2025-07-14T03:00:00:Z","depth":0,"parameterNumber":3,"parameterNumberName":"V-component_of_WINDS"},"data":[0,0,0,0,0,0,0,0,0,0,0,0,0,0,0,0,0,0,0,0,0,0,0,0,0,0,0,0,0,0,0,0,0,0,0,0,0,0,0,0,0,0,0,0,0,0,0,0,0,0,0,0,0,0,0,0,0,0,2.1686,2.1687,0,2.1741,2.1741,2.1742,2.174,2.1739,2.1738,2.1737,2.179,2.1792,2.1795,0,0,0,0,0,0,0,0,0,0,0,0,0,2.1576,2.1578,2.1686,2.1687,2.1688,2.1741,2.1741,2.1742,2.174,2.1739,2.1738,2.1737,2.179,2.1792,2.1795,0,0,0,0,0,0,0,0,0,0,0,0,0,2.1627,2.1579,2.1686,2.1693,2.1694,2.1741,2.1741,2.1742,2.174,2.1739,2.1738,2.1737,2.1789,2.1792,2.1795,2.1838,0,0,2.1805,2.1806,0,0,0,0,0,0,0,0,2.1624,2.1631,2.1691,2.1692,2.1694,2.1732,2.1722,2.1774,2.174,2.1722,2.1737,2.1736,2.1772,2.1776,2.1789,2.184,2.1842,2.1805,2.1807,2.1808,2.1809,0,0,0,0,0,0,0,2.162,2.1628,2.1708,2.1692,2.1694,2.1692,2.1698,2.1732,2.1753,2.1724,2.1724,2.173,2.1772,2.1786,2.179,2.1843,2.1805,2.1808,2.181,2.1811,2.193,2.1931,0,0,0,0,0,0,2.1616,2.1625,2.1706,2.1709,2.1655,2.1695,2.1701,2.1721,2.1752,2.1756,2.1731,2.173,2.1781,2.1786,2.1792,2.1843,2.1808,2.1811,2.1813,2.1929,2.193,2.1932,0,0,0,0,0,0,2.1613,2.1623,2.1704,2.1667,2.1678,2.1698,2.172,2.1723,2.1736,2.1758,2.1761,2.1742,2.178,2.1788,2.1826,2.1845,2.1813,2.1816,2.1927,2.1929,2.1931,2.1945,0,0,0,0,0,0,2.161,2.1622,2.164,2.1668,2.168,2.1738,2.1721,2.1725,2.1742,2.1741,2.1769,2.1772,2.178,2.1821,2.1829,2.1848,2.1818,2.1926,2.1928,2.193,2.1943,2.1947,2.1951,0,0,0,0,0,2.1606,2.1641,2.1641,2.165,2.1702,2.1739,2.1746,2.1755,2.1744,2.1761,2.1774,2.1771,2.1841,2.1825,2.1834,2.1855,2.1924,2.1927,2.193,2.1941,2.1947,2.1951,0,0,0,0,0,0,2.1614,2.1645,2.1645,2.169,2.1712,2.1739,2.1761,2.176,2.1785,2.1783,2.1792,2.1799,2.1837,2.185,2.1831,2.1896,2.1881,2.1886,2.1887,2.1892,2.1896,2.1892,2.1821,0,0,0,0,0,2.1621,2.165,2.1675,2.1713,2.1724,2.174,2.1757,2.1762,2.1785,2.1794,2.1811,2.1832,2.1858,2.1876,2.1902,2.1945,2.195,2.1963,2.1967,2.197,2.1974,2.1996,2.2002,2.1941,2.1941,2.1941,0,0,2.1636,2.1656,2.1674,2.1715,2.1732,2.1761,2.1748,2.1779,2.18,2.1798,2.1836,2.1848,2.1873,2.1913,2.1932,2.1925,2.1992,2.1974,2.1976,2.1978,2.1999,2.2005,2.201,2.1943,2.1942,2.1942,0,0,2.1677,2.1696,2.1729,2.1747,2.1774,2.1784,2.1792,2.1819,2.1827,2.1865,2.1864,2.1888,2.1934,2.1951,2.1966,2.2012,2.2009,2.202,2.204,2.2061,2.2066,2.207,2.2086,2.2091,2.2024,2.2024,2.2024,0,2.1692,2.1736,2.1746,2.1776,2.1794,2.1794,2.1826,2.1843,2.1876,2.1888,2.1879,2.1936,2.1953,2.1997,2.2008,2.202,2.2028,2.2017,2.2065,2.2069,2.2073,2.2088,2.2094,2.2025,2.2025,2.2025,2.2024,0,2.1752,2.1782,2.1805,2.1838,2.1858,2.1889,2.1902,2.192,2.1923,2.1934,2.1971,2.1991,2.202,2.2031,2.2034,2.2075,2.2069,2.2063,2.2048,2.208,2.2094,2.2099,2.2026,2.2026,2.2026,2.2025,0,0,2.18,2.1837,2.1846,2.186,2.1889,2.1912,2.1942,2.1972,2.1987,2.2009,2.2034,2.2073,2.2066,2.2083,2.2088,2.2107,2.214,2.2097,2.2098,2.2104,2.2184,2.2188,2.2195,2.2138,2.214,2.214,2.2182,0,2.1844,2.1899,2.1908,2.1956,2.1983,2.1983,2.2009,2.2029,2.204,2.2063,2.2074,2.2101,2.2091,2.2101,2.212,2.2132,2.2156,2.2129,2.216,2.2161,2.2154,2.2202,2.2207,2.2245,2.2187,2.2188,2.2189,0,2.1902,2.1927,2.1978,2.2002,2.2013,2.2037,2.2064,2.2086,2.2108,2.2114,2.2132,2.2134,2.2164,2.2148,2.2188,2.217,2.2183,2.2191,2.2192,2.2195,2.2177,2.2205,2.2258,2.2263,2.2198,2.2197,2.2196,0,2.1931,2.1977,2.2013,2.2025,2.2054,2.2071,2.2084,2.2104,2.2121,2.2143,2.2154,2.218,2.2193,2.2213,2.2221,2.2208,2.226,2.2245,2.2265,2.2265,2.2276,2.2275,2.233,2.2285,2.2285,2.2285,2.2285,0,2.1978,2.2009,2.2026,2.2048,2.2082,2.2091,2.2124,2.2136,2.2154,2.2177,2.2178,2.22,2.221,2.2233,2.2239,2.2271,2.2277,2.2282,2.2283,2.2282,2.2281,2.229,2.2287,2.2286,2.2286,2.2286,2.2286,0,2.2016,2.2029,2.2068,2.2092,2.2099,2.2123,2.2143,2.2163,2.2173,2.2203,2.221,2.2225,2.2252,2.2262,2.2294,2.2299,2.2335,2.2334,2.2328,2.2328,2.2347,2.2345,2.2409,2.2418,2.2368,2.2369,2.2369,0,2.2045,2.2069,2.2096,2.2112,2.2125,2.2151,2.2168,2.2177,2.2194,2.222,2.2237,2.2263,2.2285,2.2327,2.234,2.2365,2.2364,2.2385,2.2368,2.2365,2.2363,2.2361,2.2363,2.2388,2.2389,2.2389,2.2389,0,2.2095,2.21,2.2124,2.2151,2.2171,2.2192,2.2212,2.2225,2.2237,2.2256,2.2283,2.23,2.2333,2.2359,2.2383,2.2395,2.2394,2.2395,2.24,2.2399,2.2394,2.2395,2.2336,2.2393,2.2393,2.2392,2.2392,2.2392,2.2129,2.2149,2.2171,2.2198,2.2214,2.2233,2.2253,2.2265,2.2289,2.2317,2.232,2.2349,2.2369,2.2402,2.2415,2.2436,2.2431,2.2439,2.2441,2.2443,2.2444,2.2391,2.2441,2.2441,2.2441,2.2441,2.2441,0,2.2178,2.2191,2.2216,2.2245,2.2265,2.2263,2.2285,2.2302,2.2328,2.2347,2.2368,2.2399,2.2423,2.2438,2.2463,2.2477,2.2477,2.2483,2.2482,2.2484,2.2448,2.244,2.2483,2.2483,2.2482,2.2482,2.2482,2.2482,2.2205,2.224,2.2247,2.2288,2.2302,2.2331,2.2343,2.236,2.2375,2.2409,2.243,2.244,2.2456,2.2482,2.2504,2.2507,2.2516,2.2522,2.2525,2.2491,2.2487,2.2483,2.2475,2.2524,2.2524,2.2559,2.2559,2.256]}]]